Current Version              Previous Version:    01  02  03  04  05  06  07  08  09  10  11  12  13  14  15  16  17  18  19  20  21  22  23  24  25  26  27  28  29  30  
   31  32  33  34  35  36  37  38  39  40  41  42  43  44  45  46  47  48  49  50  51  52  53  54  55  56  57  58  59  60  

[Printable]
531
ASUS44 KFWD 281810
RWRTX
NORTH TEXAS HOURLY WEATHER ROUNDUP
NATIONAL WEATHER SERVICE FORT WORTH TX
100 PM CDT MON JUL 28 2014

NOTE: "FAIR" INDICATES FEW OR NO CLOUDS BELOW 12,000 FEET WITH NO
SIGNIFICANT WEATHER AND/OR OBSTRUCTIONS TO VISIBILITY.

TXZ118-119-281900-
DALLAS/FORT WORTH METROPLEX

CITY           SKY/WX    TMP DP  RH WIND       PRES   REMARKS
DFW AIRPORT    PTSUNNY   95  68  41 N16       30.13F HX  99
6HR MIN TEMP:  82; 6HR MAX TEMP:  95;

DALLAS LOVE    PTSUNNY   94  69  44 N10       30.12F HX  99
6HR MIN TEMP:  82; 6HR MAX TEMP:  94;

FTW MEACHAM    MOSUNNY   94  68  42 N16G22    30.13F HX  98
6HR MIN TEMP:  82; 6HR MAX TEMP:  96;

DAL-EXECUTIVE  MOSUNNY   93  70  46 NE7       30.12F HX  99
6HR MIN TEMP:  81; 6HR MAX TEMP:  96;

FTW-ALLIANCE   PTSUNNY   90  69  50 NE9       30.14F HX  94
6HR MIN TEMP:  79; 6HR MAX TEMP:  90;

FTW-NAS-JRB    PTSUNNY   95  66  38 NE15      30.17F HX  98
6HR MIN TEMP:  84; 6HR MAX TEMP:  96;

FTW-SPINKS     MOSUNNY   97  68  38 NE9       30.14F HX 101
ARLINGTON      CLOUDY    94  67  41 N10       30.12F HX  97
6HR MIN TEMP:  81; 6HR MAX TEMP:  94;

GRAND PRAIRIE  SUNNY     93  66  40 N9G21     30.13F HX  96
ADDISON        MOSUNNY   91  66  43 NE13G18   30.14F HX  94
MESQUITE       SUNNY     91  72  52 NW14      30.12F HX  98
LANCASTER      PTSUNNY   94  71  48 NE7       30.12F HX 101
6HR MIN TEMP:  74; 6HR MAX TEMP:  95;

$$

TXZ091>094-102>105-117-120-121-131>134-281900-
NORTH CENTRAL TEXAS

CITY           SKY/WX    TMP DP  RH WIND       PRES   REMARKS
SHRMAN/DENISON CLOUDY    88  60  38 NE12      30.18F
6HR MIN TEMP:  79; 6HR MAX TEMP:  89;

GAINESVILLE    CLOUDY    82  67  59 N10       30.21S
6HR MIN TEMP:  74; 6HR MAX TEMP:  83;

BOWIE          CLOUDY    80  68  68 N10G16    30.23R
6HR MIN TEMP:  75; 6HR MAX TEMP:  80; 6HR PCP:  0.05;

BRIDGEPORT     PTSUNNY   89  66  47 NE9G16    30.20S HX  91
6HR MIN TEMP:  79; 6HR MAX TEMP:  89;

DECATUR        PTSUNNY   87  64  46 N10       30.20S
6HR MIN TEMP:  78; 6HR MAX TEMP:  87;

DENTON         PTSUNNY   87  64  46 N16       30.16S
6HR MIN TEMP:  80; 6HR MAX TEMP:  89;

MCKINNEY       PTSUNNY   88  69  53 N12       30.14F HX  92
6HR MIN TEMP:  77; 6HR MAX TEMP:  90;

GREENVILLE     MOSUNNY   90  72  55 NE9       30.13F HX  96
ROCKWALL       MOSUNNY   91  73  56 N10G16    30.12S HX  99
6HR MIN TEMP:  78; 6HR MAX TEMP:  91;

TERRELL        PTSUNNY   96  74  48 NE3       30.11F HX 107
6HR MIN TEMP:  78; 6HR MAX TEMP:  96;

WAXAHACHIE     PTSUNNY   93  70  46 NE7       30.13F HX  99
6HR MIN TEMP:  79; 6HR MAX TEMP:  94;

CLEBURNE       MOSUNNY   95  70  43 NE10      30.14F HX 101
GRANBURY       PTSUNNY   94  66  40 N9        30.15S HX  97
6HR MIN TEMP:  76; 6HR MAX TEMP:  95;

$$

TXZ083>090-098>101-113>116-127>130-139>142-154-155-281900-
WESTERN NORTH TEXAS

CITY           SKY/WX    TMP DP  RH WIND       PRES   REMARKS
WICHITA FALLS  LGT RAIN  72  68  87 N12       30.26R
6HR MIN TEMP:  72; 6HR MAX TEMP:  75; 6HR PCP:  0.26;

WF-KICKAPOO    RAIN      73  70  92 N13G21    30.26S
6HR MIN TEMP:  73; 6HR MAX TEMP:  78; 6HR PCP:  0.08;

VERNON         CLOUDY    70  67  91 NE7       30.30F THUNDER
ABILENE        MOSUNNY   95  64  35 NW9       30.18F HX  97
6HR MIN TEMP:  77; 6HR MAX TEMP:  95;

ABILENE-DYESS  MOSUNNY   94  65  37 VRB6      30.17F HX  96
6HR MIN TEMP:  75; 6HR MAX TEMP:  94;

BRECKENRIDGE   PTSUNNY   92  66  42 E13G21    30.17S HX  95
6HR MIN TEMP:  80; 6HR MAX TEMP:  95;

GRAHAM         PTSUNNY   88  64  44 NE13G18   30.19S
6HR MIN TEMP:  80; 6HR MAX TEMP:  88;

MINERAL WELLS  MOSUNNY   92  66  42 N12       30.15F HX  94
6HR MIN TEMP:  76; 6HR MAX TEMP:  93;

STEPHENVILLE   MOSUNNY   93  67  41 NE8G17    30.18F HX  97
6HR MIN TEMP:  74; 6HR MAX TEMP:  94;

COMANCHE       MOSUNNY   96  63  34 N6G16     30.15F HX  97
6HR MIN TEMP:  72; 6HR MAX TEMP:  96;

BROWNWOOD      SUNNY     95  63  34 E9        30.14F HX  96
COLEMAN        SUNNY     93  61  33 CALM      30.17F HX  93
6HR MIN TEMP:  74; 6HR MAX TEMP:  94;

BRADY          MOSUNNY   93  64  38 SE6       30.16F HX  95
$$

TXZ143>147-156>162-174-175-281900-
CENTRAL TEXAS

CITY           SKY/WX    TMP DP  RH WIND       PRES   REMARKS
WACO           SUNNY     95  69  42 VRB3      30.11F HX 100
6HR MIN TEMP:  76; 6HR MAX TEMP:  96;

WACO-TSTC      MOSUNNY   93  66  40 VRB5      30.11F HX  96
WACO-MCGREGOR  SUNNY     97  64  34 E5        30.12F HX  99
6HR MIN TEMP:  73; 6HR MAX TEMP:  97;

HILLSBORO      MOSUNNY   95  69  42 N9        30.12F HX 100
6HR MIN TEMP:  75; 6HR MAX TEMP:  96;

CORSICANA      MOSUNNY   94  71  47 CALM      30.12F HX 101
6HR MIN TEMP:  77; 6HR MAX TEMP:  95;

MEXIA          SUNNY     93  71  49 W3        30.11F HX 100
6HR MIN TEMP:  75; 6HR MAX TEMP:  93;

HEARNE         SUNNY    N/A N/A N/A SW5       30.11F
CAMERON        SUNNY     93  71  49 SW8       30.11F HX  99
6HR MIN TEMP:  74; 6HR MAX TEMP:  93;

TEMPLE         SUNNY     93  64  38 CALM      30.13F HX  95
6HR MIN TEMP:  72; 6HR MAX TEMP:  93;

KILLEEN        MOSUNNY   93  64  38 E5        30.13F HX  95
KILLEEN-SKYLRK SUNNY     93  64  38 S7        30.12F HX  95
6HR MIN TEMP:  73; 6HR MAX TEMP:  93;

FORT HOOD      SUNNY     97  64  33 CALM      30.12F HX  99
6HR MIN TEMP:  76; 6HR MAX TEMP:  97;

GATESVILLE     SUNNY     93  66  40 E5        30.14F HX  96
HAMILTON       MOSUNNY   93  68  42 N6        30.15F HX  97
6HR MIN TEMP:  74; 6HR MAX TEMP:  94;

LAMPASAS       SUNNY     94  68  41 S5        30.14S HX  98
6HR MIN TEMP:  71; 6HR MAX TEMP:  96;

$$

TXZ095>097-106>112-122>126-135>138-148>153-164>167-281900-
EAST TEXAS

CITY           SKY/WX    TMP DP  RH WIND       PRES   REMARKS
PARIS          PTSUNNY   88  66  48 CALM      30.15F HX  90
6HR MIN TEMP:  79; 6HR MAX TEMP:  88;

SULPHUR SPRNGS PTSUNNY   88  74  62 NE8       30.14F HX  97
6HR MIN TEMP:  79; 6HR MAX TEMP:  88; 6HR PCP:  0.05;

CLARKSVILLE    MOSUNNY   89  64  43 NE3       30.13F
6HR MIN TEMP:  78; 6HR MAX TEMP:  90;

MOUNT PLEASANT MOSUNNY   89  67  47 N6        30.12F HX  91
6HR MIN TEMP:  77; 6HR MAX TEMP:  89;

GILMER         MOSUNNY   91  77  62 N5        30.12F HX 105
MINEOLA        PTSUNNY   91  77  62 CALM      30.11  HX 105
TYLER          PTSUNNY   91  74  57 VRB3      30.10F HX 100
6HR MIN TEMP:  79; 6HR MAX TEMP:  93;

LONGVIEW       MOSUNNY   92  74  55 VRB3      30.09F HX 101
6HR MIN TEMP:  78; 6HR MAX TEMP:  92;

MARSHALL       PTSUNNY   91  78  65 E6        30.11F HX 107
6HR MIN TEMP:  80; 6HR MAX TEMP:  92; 6HR PCP:  0.01;

ATHENS         MOSUNNY   90  72  55 CALM      30.10F HX  96
JACKSONVILLE   MOSUNNY   90  72  55 W6        30.14F HX  96
HENDERSON      MOSUNNY   91  75  59 NW7       30.11F HX 100
6HR MIN TEMP:  76; 6HR MAX TEMP:  91;

NACOGDOCHES    MOSUNNY   91  72  52 NW8       30.11F HX  98
6HR MIN TEMP:  75; 6HR MAX TEMP:  91;

LUFKIN         MOSUNNY   93  73  52 NW5       30.11F HX 102
6HR MIN TEMP:  78; 6HR MAX TEMP:  93;

$$

SUPPLEMENTAL OBSERVATIONS (CENTRAL)

CITY           SKY/WX    TMP DP  RH WIND       PRES   REMARKS
CADDO GRASSLND   N/A     90  70  51 N3          N/A  HX  95
PAT MAYSE LAKE   N/A     88  68  51 N7          N/A  HX  91
GREENVILLE       N/A     90  72  55 NE10        N/A  HX  96
CEDAR HILL       N/A     97  70  41 N7G15       N/A  HX 103
MCGREGOR         N/A     99  64  32 N3          N/A  HX 101
$$

SUPPLEMENTAL OBSERVATIONS (WEST)

CITY           SKY/WX    TMP DP  RH WIND       PRES   REMARKS
MILLERS CREEK    N/A     82  68  61 NE18G25     N/A
LBJ GRASSLAND    N/A     90  64  43 VRB9        N/A  HX  91
GRANBURY         N/A     93  66  40 NE10        N/A  HX  96